TimeAKDT,TemperatureF,Dew PointF,Humidity,Sea Level PressureIn,VisibilityMPH,Wind Direction,Wind SpeedMPH,Gust SpeedMPH,PrecipitationIn,Events,Conditions,WindDirDegrees,DateUTC
12:11 AM,46.4,46.4,100,30.25,10.0,Calm,Calm,-,N/A,,Overcast,0,2012-10-08 08:11:00
12:30 AM,46.4,46.4,100,30.25,10.0,Calm,Calm,-,N/A,,Overcast,0,2012-10-08 08:30:00
12:53 AM,46.0,46.0,100,30.26,10.0,Calm,Calm,-,N/A,,Overcast,0,2012-10-08 08:53:00
1:53 AM,46.0,46.0,100,30.25,10.0,Calm,Calm,-,N/A,,Overcast,0,2012-10-08 09:53:00
2:53 AM,46.9,46.9,100,30.24,10.0,South,6.9,-,N/A,,Overcast,180,2012-10-08 10:53:00
3:34 AM,48.2,46.4,93,30.23,10.0,South,6.9,-,N/A,,Overcast,190,2012-10-08 11:34:00
3:37 AM,48.2,46.4,93,30.22,10.0,South,6.9,-,N/A,,Overcast,190,2012-10-08 11:37:00
3:44 AM,48.2,48.2,100,30.22,10.0,SSW,6.9,-,N/A,,Overcast,200,2012-10-08 11:44:00
3:53 AM,48.0,48.0,100,30.23,10.0,SSW,9.2,-,N/A,,Overcast,200,2012-10-08 11:53:00
4:38 AM,48.2,48.2,100,30.22,9.0,SSW,10.4,-,N/A,,Overcast,200,2012-10-08 12:38:00
4:53 AM,48.0,48.0,100,30.22,3.0,South,9.2,-,N/A,,Overcast,190,2012-10-08 12:53:00
4:57 AM,48.2,48.2,100,30.21,1.8,SSW,9.2,-,N/A,,Overcast,200,2012-10-08 12:57:00
5:23 AM,48.2,48.2,100,30.21,2.5,South,8.1,-,N/A,,Overcast,190,2012-10-08 13:23:00
5:53 AM,48.0,48.0,100,30.22,2.0,South,6.9,-,N/A,,Overcast,180,2012-10-08 13:53:00
6:02 AM,46.4,46.4,100,30.21,1.8,South,6.9,-,N/A,,Overcast,170,2012-10-08 14:02:00
6:18 AM,46.4,46.4,100,30.21,2.0,South,5.8,-,N/A,,Overcast,180,2012-10-08 14:18:00
6:53 AM,46.9,46.9,100,30.21,2.5,South,5.8,-,N/A,,Overcast,180,2012-10-08 14:53:00
7:51 AM,46.4,46.4,100,30.20,2.5,South,6.9,-,N/A,,Overcast,180,2012-10-08 15:51:00
7:53 AM,46.9,46.9,100,30.21,2.5,South,8.1,-,N/A,,Overcast,180,2012-10-08 15:53:00
8:00 AM,46.4,46.4,100,30.20,4.0,South,8.1,-,N/A,,Overcast,180,2012-10-08 16:00:00
8:53 AM,48.0,48.0,100,30.21,4.0,SSW,11.5,-,N/A,,Overcast,210,2012-10-08 16:53:00
9:30 AM,48.2,48.2,100,30.20,2.5,SW,10.4,-,N/A,,Overcast,220,2012-10-08 17:30:00
9:53 AM,48.0,48.0,100,30.21,2.0,SSW,10.4,-,0.01,Rain,Light Rain,210,2012-10-08 17:53:00
10:53 AM,46.9,46.9,100,30.21,2.0,SSE,5.8,-,0.01,,Overcast,160,2012-10-08 18:53:00
11:53 AM,46.9,46.9,100,30.21,2.0,South,8.1,-,0.00,Rain,Light Rain,180,2012-10-08 19:53:00
12:53 PM,48.0,48.0,100,30.21,2.0,SSW,13.8,-,0.01,,Overcast,210,2012-10-08 20:53:00
1:53 PM,48.0,48.0,100,30.20,2.0,SW,12.7,-,0.00,,Overcast,220,2012-10-08 21:53:00
2:53 PM,46.9,46.9,100,30.20,10.0,SW,9.2,-,N/A,,Overcast,230,2012-10-08 22:53:00
3:53 PM,46.9,46.9,100,30.19,5.0,SW,9.2,-,N/A,,Overcast,230,2012-10-08 23:53:00
4:53 PM,46.9,46.9,100,30.19,2.0,SW,8.1,-,N/A,,Overcast,230,2012-10-09 00:53:00
4:58 PM,46.4,46.4,100,30.19,1.8,SW,6.9,-,N/A,,Overcast,220,2012-10-09 00:58:00
5:25 PM,46.4,46.4,100,30.18,3.0,SW,5.8,-,N/A,,Overcast,220,2012-10-09 01:25:00
5:53 PM,46.9,46.0,97,30.19,6.0,WSW,5.8,-,N/A,,Overcast,240,2012-10-09 01:53:00
6:53 PM,46.0,45.0,96,30.19,10.0,SSW,8.1,-,N/A,,Overcast,210,2012-10-09 02:53:00
7:51 PM,46.4,44.6,93,30.17,10.0,Calm,Calm,-,N/A,,Overcast,0,2012-10-09 03:51:00
7:53 PM,46.0,45.0,96,30.18,10.0,Calm,Calm,-,N/A,,Overcast,0,2012-10-09 03:53:00
8:18 PM,46.4,44.6,93,30.17,8.0,SW,4.6,-,N/A,,Overcast,230,2012-10-09 04:18:00
8:20 PM,46.4,44.6,93,30.17,8.0,SW,3.5,-,N/A,,Overcast,220,2012-10-09 04:20:00
8:53 PM,46.0,45.0,96,30.18,10.0,SW,4.6,-,N/A,,Overcast,230,2012-10-09 04:53:00
9:53 PM,46.0,45.0,96,30.18,10.0,SW,4.6,-,N/A,,Overcast,230,2012-10-09 05:53:00
10:53 PM,46.0,45.0,96,30.19,10.0,Calm,Calm,-,N/A,,Overcast,0,2012-10-09 06:53:00
11:08 PM,46.4,44.6,93,30.18,10.0,SSW,3.5,-,N/A,,Overcast,210,2012-10-09 07:08:00
11:46 PM,46.4,44.6,93,30.18,10.0,SSW,5.8,-,N/A,,Overcast,200,2012-10-09 07:46:00
11:53 PM,46.4,44.6,93,30.18,10.0,South,4.6,-,N/A,,Overcast,190,2012-10-09 07:53:00